Weather History for Dubuque, IA

Change the Weather History Date:

Friday, April 4, 2014

  Actual Average Record
Temperature  
Mean Temperature 34 °F 44 °F  
Max Temperature 37 °F 54 °F 83 °F (1929)
Min Temperature 31 °F 34 °F 13 °F (1995)
Degree Days  
Heating Degree Days 31 21  
Month to date heating degree days 114 88  
Since 1 July heating degree days 7649 6399  
Cooling Degree Days 0 0  
Month to date cooling degree days 0 0  
Year to date cooling degree days 0 0  
Moisture  
Dew Point 30 °F    
Average Humidity 80    
Maximum Humidity 100    
Minimum Humidity 59    
Precipitation  
Precipitation 0.03 in 0.10 in 1.80 in (1892)
Month to date precipitation 0.09 0.41  
Year to date precipitation 3.71 5.43  
Snow  
Snow 0.00 in 0.10 in - ()
Month to date snowfall 0.0 0.5  
Since 1 July snowfall 62.6 40.4  
Snow Depth 0.00 in    
Sea Level Pressure  
Sea Level Pressure 29.68 in    
Wind  
Wind Speed 16 mph (NW)    
Max Wind Speed 31 mph    
Max Gust Speed 41 mph    
Visibility 7 miles    
Events      
T = Trace of Precipitation, MM = Missing Value Source: NWS Daily Summary

Daily Weather History Graph

Daily Weather History Graph

Search for Another Location

Airport:

Trip Planner

Search our weather history database for the weather conditions in past years. The results will help you decide how hot, cold, wet, or windy it might be!

Date:

Astronomy

Apr. 04, 2014 Rise Set
Actual Time 6:40 AM CDT 7:32 PM CDT
Civil Twilight 6:11 AM CDT 8:00 PM CDT
Nautical Twilight 5:37 AM CDT 8:34 PM CDT
Astronomical Twilight 5:02 AM CDT 9:10 PM CDT
Moon 9:52 AM CDT (4/4) No Moon Set
Length of Visible Light 13h 49m
Length of Day
12h 52m
Waxing Crescent, 25% of the Moon is Illuminated
Apr 4
Waxing Crescent
Apr 7
First Quarter
Apr 15
Full
Apr 22
Last Quarter
Apr 29
New

Hourly Weather History & Observations

Time (CDT) Temp. Windchill Dew Point Humidity Pressure Visibility Wind Dir Wind Speed Gust Speed Precip Events Conditions
12:43 AM 34.0 °F 28.0 °F 33.1 °F 96% 29.59 in 2.0 mi ENE 6.9 mph - 0.01 in   Overcast
12:53 AM 34.0 °F 27.2 °F 33.1 °F 96% 29.61 in 1.8 mi ENE 8.1 mph - 0.02 in   Overcast
1:05 AM 34.0 °F 25.5 °F 33.1 °F 96% 29.57 in 2.5 mi ENE 11.5 mph - N/A   Overcast
1:17 AM 35.1 °F 27.9 °F 34.0 °F 96% 29.55 in 3.0 mi ENE 9.2 mph - N/A   Overcast
1:24 AM 34.0 °F 25.5 °F 34.0 °F 100% 29.53 in 2.5 mi ENE 11.5 mph - N/A   Overcast
1:40 AM 35.1 °F 27.4 °F 34.0 °F 96% 29.53 in 1.8 mi East 10.4 mph - N/A   Overcast
1:53 AM 35.1 °F 27.9 °F 34.0 °F 96% 29.57 in 1.8 mi East 9.2 mph - N/A   Overcast
2:53 AM 36.0 °F 30.3 °F 35.1 °F 97% 29.49 in 1.8 mi East 6.9 mph - N/A   Overcast
3:53 AM 36.0 °F 30.3 °F 35.1 °F 97% 29.50 in 1.5 mi NW 6.9 mph - 0.02 in   Overcast
4:22 AM 36.0 °F 32.1 °F 35.1 °F 97% 29.45 in 2.0 mi North 4.6 mph - 0.01 in   Overcast
4:53 AM 35.1 °F 31.0 °F 35.1 °F 100% 29.48 in 2.0 mi NNW 4.6 mph - 0.01 in   Overcast
5:01 AM 35.1 °F 31.0 °F 34.0 °F 96% 29.46 in 1.2 mi NNW 4.6 mph - N/A   Overcast
5:23 AM 35.1 °F 30.1 °F 34.0 °F 96% 29.47 in 2.5 mi NW 5.8 mph - N/A   Overcast
5:33 AM 35.1 °F 29.3 °F 34.0 °F 96% 29.47 in 3.0 mi NW 6.9 mph - N/A   Overcast
5:53 AM 35.1 °F 27.9 °F 34.0 °F 96% 29.51 in 4.0 mi WNW 9.2 mph - N/A   Overcast
6:07 AM 35.1 °F 27.9 °F 34.0 °F 96% 29.49 in 2.5 mi NW 9.2 mph - N/A   Overcast
6:23 AM 34.0 °F 25.0 °F 33.1 °F 96% 29.50 in 3.0 mi WNW 12.7 mph - N/A   Overcast
6:53 AM 34.0 °F 25.5 °F 32.0 °F 92% 29.54 in 9.0 mi NW 11.5 mph - N/A   Overcast
7:13 AM 34.0 °F 24.2 °F 32.0 °F 92% 29.52 in 10.0 mi WNW 15.0 mph - N/A   Overcast
7:53 AM 34.0 °F 23.4 °F 30.9 °F 89% 29.57 in 10.0 mi WNW 17.3 mph 24.2 mph N/A   Overcast
8:53 AM 34.0 °F 21.8 °F 30.9 °F 89% 29.59 in 10.0 mi WNW 23.0 mph 31.1 mph N/A   Overcast
9:36 AM 34.0 °F 23.4 °F 30.0 °F 85% 29.57 in 10.0 mi WNW 17.3 mph 28.8 mph N/A   Overcast
9:53 AM 34.0 °F 22.1 °F 30.0 °F 85% 29.61 in 10.0 mi WNW 21.9 mph 26.5 mph N/A   Overcast
10:53 AM 35.1 °F 23.3 °F 28.9 °F 78% 29.65 in 10.0 mi WNW 23.0 mph 32.2 mph N/A   Overcast
11:53 AM 34.0 °F 21.8 °F 28.0 °F 79% 29.68 in 10.0 mi NW 23.0 mph 29.9 mph N/A   Overcast
12:53 PM 35.1 °F 23.8 °F 26.1 °F 70% 29.71 in 10.0 mi NW 20.7 mph 35.7 mph N/A   Overcast
1:53 PM 35.1 °F 22.0 °F 24.1 °F 64% 29.75 in 10.0 mi NW 28.8 mph 36.8 mph N/A   Overcast
2:53 PM 35.1 °F 22.7 °F 25.0 °F 67% 29.78 in 10.0 mi NW 25.3 mph 36.8 mph N/A   Overcast
3:53 PM 35.1 °F 22.5 °F 25.0 °F 67% 29.82 in 10.0 mi NW 26.5 mph 35.7 mph N/A   Overcast
4:53 PM 37.0 °F 25.6 °F 25.0 °F 62% 29.86 in 10.0 mi NW 24.2 mph 31.1 mph N/A   Overcast
5:53 PM 37.0 °F 25.1 °F 25.0 °F 62% 29.90 in 10.0 mi NW 26.5 mph 32.2 mph N/A   Overcast
6:53 PM 36.0 °F 26.3 °F 25.0 °F 64% 29.95 in 10.0 mi NW 16.1 mph 29.9 mph N/A   Overcast
7:53 PM 35.1 °F 24.8 °F 25.0 °F 67% 29.99 in 10.0 mi NW 17.3 mph - N/A   Overcast
8:35 PM 35.1 °F 24.1 °F 24.1 °F 64% 29.98 in 10.0 mi NNW 19.6 mph - N/A   Overcast
8:44 PM 35.1 °F 26.4 °F 24.1 °F 64% 29.99 in 10.0 mi NNW 12.7 mph 24.2 mph N/A   Overcast
8:53 PM 35.1 °F 25.2 °F 24.1 °F 64% 30.03 in 10.0 mi NNW 16.1 mph - N/A   Overcast
9:53 PM 33.1 °F 25.5 °F 24.1 °F 70% 30.06 in 10.0 mi WNW 9.2 mph - N/A   Mostly Cloudy
10:53 PM 34.0 °F 27.2 °F 26.1 °F 73% 30.08 in 10.0 mi WNW 8.1 mph - N/A   Overcast
11:53 PM 33.1 °F 26.1 °F 26.1 °F 75% 30.09 in 10.0 mi WNW 8.1 mph - N/A   Overcast